Time,TemperatureF,DewpointF,PressureIn,WindDirection,WindDirectionDegrees,WindSpeedMPH,WindSpeedGustMPH,Humidity,HourlyPrecipIn,Conditions,Clouds,dailyrainin,SoftwareType,DateUTC
2013-11-30 00:03:00,27.6,19.8,29.34,South,180,24.0,24.0,72,0.00,,---,0.00,VWS V13.01,2013-11-30 06:03:00,
2013-11-30 00:09:00,27.5,20.0,29.33,SSE,158,13.4,13.4,73,0.00,,---,0.00,VWS V13.01,2013-11-30 06:09:00,
2013-11-30 00:14:00,27.5,20.0,29.33,SE,135,8.8,8.8,73,0.00,,---,0.00,VWS V13.01,2013-11-30 06:14:00,
2013-11-30 00:19:00,27.5,20.0,29.33,SE,135,8.4,8.4,73,0.00,,---,0.00,VWS V13.01,2013-11-30 06:19:00,
2013-11-30 00:25:00,27.6,20.1,29.33,SSE,158,3.4,3.4,73,0.00,,---,0.00,VWS V13.01,2013-11-30 06:25:00,
2013-11-30 00:30:00,27.5,20.0,29.33,SE,135,0.0,0.0,73,0.00,,---,0.00,VWS V13.01,2013-11-30 06:30:00,
2013-11-30 00:35:00,27.6,20.1,29.32,SSE,158,12.4,12.4,73,0.00,,---,0.00,VWS V13.01,2013-11-30 06:35:00,
2013-11-30 00:41:00,27.6,20.1,29.32,SSE,158,8.4,8.4,73,0.00,,---,0.00,VWS V13.01,2013-11-30 06:41:00,
2013-11-30 00:46:00,27.6,20.1,29.32,South,180,0.0,0.0,73,0.00,,---,0.00,VWS V13.01,2013-11-30 06:46:00,
2013-11-30 00:51:00,27.6,20.1,29.32,SSE,158,0.0,0.0,73,0.00,,---,0.00,VWS V13.01,2013-11-30 06:51:00,
2013-11-30 00:56:00,27.6,20.1,29.32,SSE,158,0.0,0.0,73,0.00,,---,0.00,VWS V13.01,2013-11-30 06:56:00,
2013-11-30 01:01:00,27.6,20.1,29.32,SSE,158,0.0,0.0,73,0.00,,---,0.00,VWS V13.01,2013-11-30 07:01:00,
2013-11-30 01:06:00,27.6,20.1,29.32,SE,135,0.0,4.0,73,0.00,,---,0.00,VWS V13.01,2013-11-30 07:06:00,
2013-11-30 01:11:00,27.6,20.1,29.32,SE,135,0.0,0.0,73,0.00,,---,0.00,VWS V13.01,2013-11-30 07:11:00,
2013-11-30 01:16:00,27.5,20.0,29.32,SSE,158,2.2,2.2,73,0.00,,---,0.00,VWS V13.01,2013-11-30 07:16:00,
2013-11-30 01:21:00,27.5,20.0,29.31,SSE,158,12.0,12.0,73,0.00,,---,0.00,VWS V13.01,2013-11-30 07:21:00,
2013-11-30 01:26:00,27.3,19.8,29.31,SSE,158,1.2,1.2,73,0.00,,---,0.00,VWS V13.01,2013-11-30 07:26:00,
2013-11-30 01:31:00,27.3,19.8,29.31,SSE,158,0.0,0.0,73,0.00,,---,0.00,VWS V13.01,2013-11-30 07:31:00,
2013-11-30 01:36:00,27.1,19.9,29.30,SSE,158,0.0,0.0,74,0.00,,---,0.00,VWS V13.01,2013-11-30 07:36:00,
2013-11-30 01:41:00,27.3,20.1,29.30,SSE,158,6.6,6.6,74,0.00,,---,0.00,VWS V13.01,2013-11-30 07:41:00,
2013-11-30 01:46:00,27.1,19.9,29.30,SSE,158,14.2,14.2,74,0.00,,---,0.00,VWS V13.01,2013-11-30 07:46:00,
2013-11-30 01:51:00,27.1,19.9,29.30,SSE,158,9.2,9.2,74,0.00,,---,0.00,VWS V13.01,2013-11-30 07:51:00,
2013-11-30 01:56:00,27.1,19.9,29.30,SSE,158,14.2,14.2,74,0.00,,---,0.00,VWS V13.01,2013-11-30 07:56:00,
2013-11-30 02:01:00,26.9,20.0,29.29,SSE,158,0.0,0.0,75,0.00,,---,0.00,VWS V13.01,2013-11-30 08:01:00,
2013-11-30 02:06:00,26.9,20.0,29.29,SSE,158,0.0,9.8,75,0.00,,---,0.00,VWS V13.01,2013-11-30 08:06:00,
2013-11-30 02:11:00,26.9,20.0,29.29,SSE,158,0.0,0.0,75,0.00,,---,0.00,VWS V13.01,2013-11-30 08:11:00,
2013-11-30 02:16:00,26.9,20.0,29.29,SE,135,0.0,0.0,75,0.00,,---,0.00,VWS V13.01,2013-11-30 08:16:00,
2013-11-30 02:21:00,26.7,19.9,29.29,SSE,158,7.6,7.6,75,0.00,,---,0.00,VWS V13.01,2013-11-30 08:21:00,
2013-11-30 02:26:00,26.7,19.9,29.29,SSE,158,12.8,12.8,75,0.00,,---,0.00,VWS V13.01,2013-11-30 08:26:00,
2013-11-30 02:31:00,26.7,19.9,29.29,SSE,158,0.0,0.0,75,0.00,,---,0.00,VWS V13.01,2013-11-30 08:31:00,
2013-11-30 02:36:00,26.7,19.9,29.29,SSE,158,7.6,7.6,75,0.00,,---,0.00,VWS V13.01,2013-11-30 08:36:00,
2013-11-30 02:41:00,26.7,19.9,29.29,SSE,158,0.0,0.0,75,0.00,,---,0.00,VWS V13.01,2013-11-30 08:41:00,
2013-11-30 02:46:00,26.7,20.2,29.29,SSE,158,0.0,0.0,76,0.00,,---,0.00,VWS V13.01,2013-11-30 08:46:00,
2013-11-30 02:51:00,26.6,20.1,29.29,SSW,202,21.4,21.4,76,0.00,,---,0.00,VWS V13.01,2013-11-30 08:51:00,
2013-11-30 02:56:00,26.7,20.2,29.29,SSE,158,8.4,8.4,76,0.00,,---,0.00,VWS V13.01,2013-11-30 08:56:00,
2013-11-30 03:01:00,26.7,20.2,29.28,SE,135,0.0,0.0,76,0.00,,---,0.00,VWS V13.01,2013-11-30 09:01:00,
2013-11-30 03:06:00,26.6,20.1,29.27,South,180,0.0,13.4,76,0.00,,---,0.00,VWS V13.01,2013-11-30 09:06:00,
2013-11-30 03:11:00,26.6,20.1,29.27,SSE,158,0.0,0.0,76,0.00,,---,0.00,VWS V13.01,2013-11-30 09:11:00,
2013-11-30 03:16:00,26.4,19.9,29.27,SSE,158,0.0,0.0,76,0.00,,---,0.00,VWS V13.01,2013-11-30 09:16:00,
2013-11-30 03:21:00,26.4,19.9,29.26,SSE,158,0.0,0.0,76,0.00,,---,0.00,VWS V13.01,2013-11-30 09:21:00,
2013-11-30 03:26:00,26.4,19.9,29.26,SSE,158,8.0,8.0,76,0.00,,---,0.00,VWS V13.01,2013-11-30 09:26:00,
2013-11-30 03:31:00,26.4,19.9,29.26,SSE,158,8.4,8.4,76,0.00,,---,0.00,VWS V13.01,2013-11-30 09:31:00,
2013-11-30 03:36:00,26.4,19.9,29.26,SSE,158,9.2,9.2,76,0.00,,---,0.00,VWS V13.01,2013-11-30 09:36:00,
2013-11-30 03:41:00,26.4,19.9,29.25,SSE,158,0.0,0.0,76,0.00,,---,0.00,VWS V13.01,2013-11-30 09:41:00,
2013-11-30 03:46:00,26.4,20.2,29.25,SE,135,0.0,0.0,77,0.00,,---,0.00,VWS V13.01,2013-11-30 09:46:00,
2013-11-30 03:51:00,26.2,20.0,29.25,SSE,158,12.4,12.4,77,0.00,,---,0.00,VWS V13.01,2013-11-30 09:51:00,
2013-11-30 03:56:00,26.2,20.0,29.25,SSE,158,0.0,0.0,77,0.00,,---,0.00,VWS V13.01,2013-11-30 09:56:00,
2013-11-30 04:01:00,26.2,20.0,29.25,SE,135,0.0,0.0,77,0.00,,---,0.00,VWS V13.01,2013-11-30 10:01:00,
2013-11-30 04:06:00,26.0,19.8,29.25,SSE,158,13.4,13.4,77,0.00,,---,0.00,VWS V13.01,2013-11-30 10:06:00,
2013-11-30 04:11:00,26.2,20.0,29.25,SSE,158,0.0,0.0,77,0.00,,---,0.00,VWS V13.01,2013-11-30 10:11:00,
2013-11-30 04:16:00,26.0,19.8,29.24,SSE,158,0.0,0.0,77,0.00,,---,0.00,VWS V13.01,2013-11-30 10:16:00,
2013-11-30 04:21:00,25.8,19.6,29.24,SSE,158,0.0,0.0,77,0.00,,---,0.00,VWS V13.01,2013-11-30 10:21:00,
2013-11-30 04:26:00,25.8,19.6,29.24,SSE,158,0.0,0.0,77,0.00,,---,0.00,VWS V13.01,2013-11-30 10:26:00,
2013-11-30 04:31:00,25.7,19.5,29.24,SSE,158,0.0,0.0,77,0.00,,---,0.00,VWS V13.01,2013-11-30 10:31:00,
2013-11-30 04:36:00,25.7,19.5,29.24,South,180,0.0,0.0,77,0.00,,---,0.00,VWS V13.01,2013-11-30 10:36:00,
2013-11-30 04:41:00,25.7,19.8,29.24,SSE,158,0.0,0.0,78,0.00,,---,0.00,VWS V13.01,2013-11-30 10:41:00,
2013-11-30 04:46:00,25.5,19.6,29.23,SSE,158,0.0,0.0,78,0.00,,---,0.00,VWS V13.01,2013-11-30 10:46:00,
2013-11-30 04:51:00,25.5,19.6,29.23,SSE,158,4.8,4.8,78,0.00,,---,0.00,VWS V13.01,2013-11-30 10:51:00,
2013-11-30 04:56:00,25.5,19.6,29.23,SE,135,0.0,0.0,78,0.00,,---,0.00,VWS V13.01,2013-11-30 10:56:00,
2013-11-30 05:01:00,25.5,19.6,29.23,SSE,158,0.0,0.0,78,0.00,,---,0.00,VWS V13.01,2013-11-30 11:01:00,
2013-11-30 05:06:00,25.3,19.4,29.23,SSE,158,0.0,0.0,78,0.00,,---,0.00,VWS V13.01,2013-11-30 11:06:00,
2013-11-30 05:11:00,25.3,19.4,29.23,SSE,158,0.0,0.0,78,0.00,,---,0.00,VWS V13.01,2013-11-30 11:11:00,
2013-11-30 05:16:00,25.3,19.4,29.23,SSE,158,0.0,0.0,78,0.00,,---,0.00,VWS V13.01,2013-11-30 11:16:00,
2013-11-30 05:21:00,25.1,19.2,29.23,SSE,158,0.0,0.0,78,0.00,,---,0.00,VWS V13.01,2013-11-30 11:21:00,
2013-11-30 05:26:00,25.1,19.2,29.23,SSE,158,0.0,0.0,78,0.00,,---,0.00,VWS V13.01,2013-11-30 11:26:00,
2013-11-30 05:31:00,24.9,19.0,29.23,SSE,158,6.6,6.6,78,0.00,,---,0.00,VWS V13.01,2013-11-30 11:31:00,
2013-11-30 05:36:00,24.9,19.3,29.23,SSE,158,0.0,0.0,79,0.00,,---,0.00,VWS V13.01,2013-11-30 11:36:00,
2013-11-30 05:41:00,24.9,19.3,29.23,SSE,158,0.0,0.0,79,0.00,,---,0.00,VWS V13.01,2013-11-30 11:41:00,
2013-11-30 05:46:00,24.8,19.2,29.22,SSE,158,0.0,0.0,79,0.00,,---,0.00,VWS V13.01,2013-11-30 11:46:00,
2013-11-30 05:51:00,24.6,19.0,29.22,SSE,158,0.0,0.0,79,0.00,,---,0.00,VWS V13.01,2013-11-30 11:51:00,
2013-11-30 05:56:00,24.6,19.0,29.23,SE,135,0.0,0.0,79,0.00,,---,0.00,VWS V13.01,2013-11-30 11:56:00,
2013-11-30 06:01:00,24.6,19.0,29.23,SSE,158,0.0,0.0,79,0.00,,---,0.00,VWS V13.01,2013-11-30 12:01:00,
2013-11-30 06:06:00,24.6,19.0,29.23,SSE,158,0.0,0.0,79,0.00,,---,0.00,VWS V13.01,2013-11-30 12:06:00,
2013-11-30 06:11:00,24.6,19.0,29.23,SSE,158,0.0,0.0,79,0.00,,---,0.00,VWS V13.01,2013-11-30 12:11:00,
2013-11-30 06:16:00,24.4,18.8,29.23,SSE,158,0.0,0.0,79,0.00,,---,0.00,VWS V13.01,2013-11-30 12:16:00,
2013-11-30 06:21:00,24.4,18.8,29.23,SSE,158,0.0,0.0,79,0.00,,---,0.00,VWS V13.01,2013-11-30 12:21:00,
2013-11-30 06:26:00,24.4,18.8,29.23,SSE,158,0.0,0.0,79,0.00,,---,0.00,VWS V13.01,2013-11-30 12:26:00,
2013-11-30 06:31:00,24.4,19.1,29.23,SSE,158,0.0,0.0,80,0.00,,---,0.00,VWS V13.01,2013-11-30 12:31:00,
2013-11-30 06:36:00,24.2,18.9,29.23,SSE,158,0.0,0.0,80,0.00,,---,0.00,VWS V13.01,2013-11-30 12:36:00,
2013-11-30 06:41:00,24.0,18.7,29.22,SSE,158,0.0,0.0,80,0.00,,---,0.00,VWS V13.01,2013-11-30 12:41:00,
2013-11-30 06:46:00,24.0,18.7,29.23,SSE,158,0.0,0.0,80,0.00,,---,0.00,VWS V13.01,2013-11-30 12:46:00,
2013-11-30 06:51:00,24.0,18.7,29.22,SSE,158,0.0,0.0,80,0.00,,---,0.00,VWS V13.01,2013-11-30 12:51:00,
2013-11-30 06:56:00,24.0,18.7,29.22,SSE,158,0.0,0.0,80,0.00,,---,0.00,VWS V13.01,2013-11-30 12:56:00,
2013-11-30 07:01:00,24.0,18.7,29.22,SE,135,0.0,0.0,80,0.00,,---,0.00,VWS V13.01,2013-11-30 13:01:00,
2013-11-30 07:06:00,23.9,18.6,29.21,SSE,158,0.0,0.0,80,0.00,,---,0.00,VWS V13.01,2013-11-30 13:06:00,
2013-11-30 07:11:00,23.9,18.6,29.22,SSE,158,0.0,0.0,80,0.00,,---,0.00,VWS V13.01,2013-11-30 13:11:00,
2013-11-30 07:16:00,23.9,18.6,29.21,SSE,158,0.0,0.0,80,0.00,,---,0.00,VWS V13.01,2013-11-30 13:16:00,
2013-11-30 07:21:00,23.9,18.6,29.22,SSE,158,0.0,0.0,80,0.00,,---,0.00,VWS V13.01,2013-11-30 13:21:00,
2013-11-30 07:26:00,24.0,18.7,29.22,SSE,158,0.0,0.0,80,0.00,,---,0.00,VWS V13.01,2013-11-30 13:26:00,
2013-11-30 07:31:00,24.0,18.7,29.22,SSE,158,0.0,0.0,80,0.00,,---,0.00,VWS V13.01,2013-11-30 13:31:00,
2013-11-30 07:36:00,24.0,18.7,29.22,SSE,158,0.0,0.0,80,0.00,,---,0.00,VWS V13.01,2013-11-30 13:36:00,
2013-11-30 07:41:00,24.0,19.0,29.22,SSE,158,0.0,0.0,81,0.00,,---,0.00,VWS V13.01,2013-11-30 13:41:00,
2013-11-30 07:46:00,24.0,19.0,29.22,SSE,158,0.0,0.0,81,0.00,,---,0.00,VWS V13.01,2013-11-30 13:46:00,
2013-11-30 07:51:00,24.0,19.0,29.22,SSE,158,0.0,0.0,81,0.00,,---,0.00,VWS V13.01,2013-11-30 13:51:00,
2013-11-30 07:56:00,24.0,19.0,29.22,SSE,158,0.0,0.0,81,0.00,,---,0.00,VWS V13.01,2013-11-30 13:56:00,
2013-11-30 08:01:00,24.0,19.0,29.22,SSE,158,0.0,0.0,81,0.00,,---,0.00,VWS V13.01,2013-11-30 14:01:00,
2013-11-30 08:06:00,24.0,19.0,29.22,SSE,158,0.0,0.0,81,0.00,,---,0.00,VWS V13.01,2013-11-30 14:06:00,
2013-11-30 08:11:00,24.0,19.0,29.22,SSE,158,0.0,0.0,81,0.00,,---,0.00,VWS V13.01,2013-11-30 14:11:00,
2013-11-30 08:16:00,24.4,19.4,29.22,SSE,158,0.0,0.0,81,0.00,,---,0.00,VWS V13.01,2013-11-30 14:16:00,
2013-11-30 08:21:00,24.4,19.4,29.22,SSE,158,0.0,0.0,81,0.00,,---,0.00,VWS V13.01,2013-11-30 14:21:00,
2013-11-30 08:26:00,24.6,19.6,29.22,SSE,158,0.0,0.0,81,0.00,,---,0.00,VWS V13.01,2013-11-30 14:26:00,
2013-11-30 08:31:00,24.6,19.6,29.21,SSE,158,0.0,0.0,81,0.00,,---,0.00,VWS V13.01,2013-11-30 14:31:00,
2013-11-30 08:36:00,24.9,19.9,29.22,SSE,158,0.0,0.0,81,0.00,,---,0.00,VWS V13.01,2013-11-30 14:36:00,
2013-11-30 08:41:00,25.1,20.1,29.22,SSE,158,0.0,0.0,81,0.00,,---,0.00,VWS V13.01,2013-11-30 14:41:00,
2013-11-30 08:46:00,25.3,20.3,29.22,SSE,158,0.0,0.0,81,0.00,,---,0.00,VWS V13.01,2013-11-30 14:46:00,
2013-11-30 08:51:00,25.5,20.5,29.23,SSE,158,0.0,0.0,81,0.00,,---,0.00,VWS V13.01,2013-11-30 14:51:00,
2013-11-30 08:56:00,25.8,20.8,29.22,SSE,158,0.0,0.0,81,0.00,,---,0.00,VWS V13.01,2013-11-30 14:56:00,
2013-11-30 09:01:00,26.2,21.2,29.22,SSE,158,0.0,0.0,81,0.00,,---,0.00,VWS V13.01,2013-11-30 15:01:00,
2013-11-30 09:06:00,26.4,21.4,29.22,SSE,158,0.0,0.0,81,0.00,,---,0.00,VWS V13.01,2013-11-30 15:06:00,
2013-11-30 09:11:00,26.7,21.7,29.22,South,180,0.0,0.0,81,0.00,,---,0.00,VWS V13.01,2013-11-30 15:11:00,
2013-11-30 09:16:00,27.1,22.1,29.22,SSW,202,0.0,0.0,81,0.00,,---,0.00,VWS V13.01,2013-11-30 15:16:00,
2013-11-30 09:21:00,27.6,22.5,29.22,SSW,202,0.0,0.0,81,0.00,,---,0.00,VWS V13.01,2013-11-30 15:21:00,
2013-11-30 09:26:00,28.0,22.9,29.22,SSE,158,0.0,0.0,81,0.00,,---,0.00,VWS V13.01,2013-11-30 15:26:00,
2013-11-30 09:31:00,28.2,23.1,29.22,SSE,158,0.0,0.0,81,0.00,,---,0.00,VWS V13.01,2013-11-30 15:31:00,
2013-11-30 09:36:00,28.9,23.5,29.22,South,180,0.0,8.4,80,0.00,,---,0.00,VWS V13.01,2013-11-30 15:36:00,
2013-11-30 09:41:00,29.3,23.9,29.22,South,180,0.0,0.0,80,0.00,,---,0.00,VWS V13.01,2013-11-30 15:41:00,
2013-11-30 09:46:00,29.8,24.4,29.22,SW,225,0.0,0.0,80,0.00,,---,0.00,VWS V13.01,2013-11-30 15:46:00,
2013-11-30 09:51:00,30.3,24.6,29.22,SW,225,13.8,13.8,79,0.00,,---,0.00,VWS V13.01,2013-11-30 15:51:00,
2013-11-30 09:56:00,30.7,25.0,29.22,SSW,202,14.2,14.2,79,0.00,,---,0.00,VWS V13.01,2013-11-30 15:56:00,
2013-11-30 10:01:00,31.1,25.0,29.22,SSW,202,0.0,0.0,78,0.00,,---,0.00,VWS V13.01,2013-11-30 16:01:00,
2013-11-30 10:06:00,31.6,25.5,29.22,SSW,202,7.6,9.8,78,0.00,,---,0.00,VWS V13.01,2013-11-30 16:06:00,
2013-11-30 10:11:00,31.8,25.4,29.22,South,180,5.2,5.2,77,0.00,,---,0.00,VWS V13.01,2013-11-30 16:11:00,
2013-11-30 10:16:00,32.3,25.9,29.22,South,180,0.0,0.0,77,0.00,,---,0.00,VWS V13.01,2013-11-30 16:16:00,
2013-11-30 10:21:00,32.7,26.0,29.21,SSW,202,0.0,16.0,76,0.00,,---,0.00,VWS V13.01,2013-11-30 16:21:00,
2013-11-30 10:26:00,33.0,26.3,29.22,WSW,248,0.0,0.0,76,0.00,,---,0.00,VWS V13.01,2013-11-30 16:26:00,
2013-11-30 10:31:00,33.4,26.7,29.22,WSW,248,0.0,0.0,76,0.00,,---,0.00,VWS V13.01,2013-11-30 16:31:00,
2013-11-30 10:36:00,33.9,26.8,29.22,West,270,0.0,0.0,75,0.00,,---,0.00,VWS V13.01,2013-11-30 16:36:00,
2013-11-30 10:41:00,34.3,27.2,29.22,West,270,0.0,0.0,75,0.00,,---,0.00,VWS V13.01,2013-11-30 16:41:00,
2013-11-30 10:46:00,34.5,27.1,29.22,West,270,0.0,0.0,74,0.00,,---,0.00,VWS V13.01,2013-11-30 16:46:00,
2013-11-30 10:51:00,35.2,27.8,29.21,WSW,248,1.6,1.6,74,0.00,,---,0.00,VWS V13.01,2013-11-30 16:51:00,
2013-11-30 10:56:00,35.4,28.0,29.21,WSW,248,0.0,0.0,74,0.00,,---,0.00,VWS V13.01,2013-11-30 16:56:00,
2013-11-30 11:01:00,35.7,27.9,29.21,West,270,0.0,0.0,73,0.00,,---,0.00,VWS V13.01,2013-11-30 17:01:00,
2013-11-30 11:06:00,36.3,28.1,29.20,West,270,5.2,5.2,72,0.00,,---,0.00,VWS V13.01,2013-11-30 17:06:00,
2013-11-30 11:11:00,36.6,28.4,29.20,West,270,0.0,0.0,72,0.00,,---,0.00,VWS V13.01,2013-11-30 17:11:00,
2013-11-30 11:16:00,37.0,28.8,29.20,West,270,0.0,0.0,72,0.00,,---,0.00,VWS V13.01,2013-11-30 17:16:00,
2013-11-30 11:22:00,37.5,29.0,29.20,SSW,202,0.0,0.0,71,0.00,,---,0.00,VWS V13.01,2013-11-30 17:22:00,
2013-11-30 11:27:00,37.9,29.4,29.20,SSW,202,0.0,0.0,71,0.00,,---,0.00,VWS V13.01,2013-11-30 17:27:00,
2013-11-30 11:32:00,38.4,29.5,29.20,SW,225,0.0,0.0,70,0.00,,---,0.00,VWS V13.01,2013-11-30 17:32:00,
2013-11-30 11:37:00,38.8,29.5,29.20,SW,225,0.0,0.0,69,0.00,,---,0.00,VWS V13.01,2013-11-30 17:37:00,
2013-11-30 11:42:00,39.3,30.0,29.19,SW,225,0.0,0.0,69,0.00,,---,0.00,VWS V13.01,2013-11-30 17:42:00,
2013-11-30 11:47:00,39.7,30.4,29.19,SW,225,0.0,0.0,69,0.00,,---,0.00,VWS V13.01,2013-11-30 17:47:00,
2013-11-30 11:52:00,40.1,30.4,29.19,WSW,248,0.0,0.0,68,0.00,,---,0.00,VWS V13.01,2013-11-30 17:52:00,
2013-11-30 11:58:00,40.4,30.3,29.20,WSW,248,0.0,0.0,67,0.00,,---,0.00,VWS V13.01,2013-11-30 17:58:00,
2013-11-30 12:03:00,40.8,30.3,29.20,WNW,292,7.6,7.6,66,0.00,,---,0.00,VWS V13.01,2013-11-30 18:03:00,
2013-11-30 12:08:00,41.0,30.5,29.19,WNW,292,0.0,0.0,66,0.00,,---,0.00,VWS V13.01,2013-11-30 18:08:00,
2013-11-30 12:13:00,41.1,30.2,29.19,WNW,292,0.0,0.0,65,0.00,,---,0.00,VWS V13.01,2013-11-30 18:13:00,
2013-11-30 12:18:00,41.3,30.4,29.18,SW,225,0.0,0.0,65,0.00,,---,0.00,VWS V13.01,2013-11-30 18:18:00,
2013-11-30 12:24:00,41.7,30.8,29.19,SW,225,6.2,6.2,65,0.00,,---,0.00,VWS V13.01,2013-11-30 18:24:00,
2013-11-30 12:29:00,42.0,31.1,29.18,WSW,248,0.0,0.0,65,0.00,,---,0.00,VWS V13.01,2013-11-30 18:29:00,
2013-11-30 12:34:00,42.6,31.3,29.18,WNW,292,0.0,0.0,64,0.00,,---,0.00,VWS V13.01,2013-11-30 18:34:00,
2013-11-30 12:39:00,42.9,31.2,29.18,WNW,292,0.0,0.0,63,0.00,,---,0.00,VWS V13.01,2013-11-30 18:39:00,
2013-11-30 12:44:00,42.9,31.2,29.18,West,270,0.0,0.0,63,0.00,,---,0.00,VWS V13.01,2013-11-30 18:44:00,
2013-11-30 12:49:00,43.3,31.6,29.18,West,270,0.0,0.0,63,0.00,,---,0.00,VWS V13.01,2013-11-30 18:49:00,
2013-11-30 12:54:00,43.5,31.4,29.17,West,270,0.0,0.0,62,0.00,,---,0.00,VWS V13.01,2013-11-30 18:54:00,
2013-11-30 13:00:00,43.8,31.6,29.18,West,270,4.0,4.0,62,0.00,,---,0.00,VWS V13.01,2013-11-30 19:00:00,
2013-11-30 13:06:00,44.4,31.8,29.18,West,270,0.0,0.0,61,0.00,,---,0.00,VWS V13.01,2013-11-30 19:06:00,
2013-11-30 13:11:00,44.7,32.1,29.18,WSW,248,0.0,0.0,61,0.00,,---,0.00,VWS V13.01,2013-11-30 19:11:00,
2013-11-30 13:16:00,44.9,31.9,29.18,WSW,248,0.0,0.0,60,0.00,,---,0.00,VWS V13.01,2013-11-30 19:16:00,
2013-11-30 13:21:00,44.9,31.9,29.18,West,270,0.0,0.0,60,0.00,,---,0.00,VWS V13.01,2013-11-30 19:21:00,
2013-11-30 13:26:00,45.1,32.1,29.17,West,270,0.0,0.0,60,0.00,,---,0.00,VWS V13.01,2013-11-30 19:26:00,
2013-11-30 13:31:00,45.3,31.8,29.17,West,270,0.0,0.0,59,0.00,,---,0.00,VWS V13.01,2013-11-30 19:31:00,
2013-11-30 13:36:00,45.1,31.2,29.17,NNW,338,0.0,0.0,58,0.00,,---,0.00,VWS V13.01,2013-11-30 19:36:00,
2013-11-30 13:41:00,45.1,31.2,29.17,West,270,0.0,0.0,58,0.00,,---,0.00,VWS V13.01,2013-11-30 19:41:00,
2013-11-30 13:46:00,45.3,31.4,29.17,West,270,0.0,0.0,58,0.00,,---,0.00,VWS V13.01,2013-11-30 19:46:00,
2013-11-30 13:51:00,45.5,31.6,29.17,West,270,0.0,0.0,58,0.00,,---,0.00,VWS V13.01,2013-11-30 19:51:00,
2013-11-30 13:57:00,45.6,31.7,29.17,West,270,0.0,0.0,58,0.00,,---,0.00,VWS V13.01,2013-11-30 19:57:00,
2013-11-30 14:02:00,46.0,32.1,29.17,West,270,0.0,0.0,58,0.00,,---,0.00,VWS V13.01,2013-11-30 20:02:00,
2013-11-30 14:07:00,46.0,31.6,29.18,West,270,0.0,0.0,57,0.00,,---,0.00,VWS V13.01,2013-11-30 20:07:00,
2013-11-30 14:12:00,46.2,31.8,29.17,West,270,0.0,0.0,57,0.00,,---,0.00,VWS V13.01,2013-11-30 20:12:00,
2013-11-30 14:17:00,46.2,31.4,29.17,NNW,338,0.0,0.0,56,0.00,,---,0.00,VWS V13.01,2013-11-30 20:17:00,
2013-11-30 14:22:00,46.0,31.2,29.18,North,0,0.0,0.0,56,0.00,,---,0.00,VWS V13.01,2013-11-30 20:22:00,
2013-11-30 14:27:00,45.6,30.8,29.18,NNW,338,9.2,9.2,56,0.00,,---,0.00,VWS V13.01,2013-11-30 20:27:00,
2013-11-30 14:32:00,45.6,30.8,29.17,NNW,338,0.0,0.0,56,0.00,,---,0.00,VWS V13.01,2013-11-30 20:32:00,
2013-11-30 14:37:00,45.6,30.8,29.18,NNW,338,0.0,0.0,56,0.00,,---,0.00,VWS V13.01,2013-11-30 20:37:00,
2013-11-30 14:43:00,46.0,31.2,29.18,NW,315,0.0,0.0,56,0.00,,---,0.00,VWS V13.01,2013-11-30 20:43:00,
2013-11-30 14:48:00,46.0,31.2,29.18,NNW,338,3.4,3.4,56,0.00,,---,0.00,VWS V13.01,2013-11-30 20:48:00,
2013-11-30 14:53:00,45.6,30.8,29.18,NNW,338,0.0,0.0,56,0.00,,---,0.00,VWS V13.01,2013-11-30 20:53:00,
2013-11-30 14:58:00,45.6,30.4,29.18,NNW,338,0.0,0.0,55,0.00,,---,0.00,VWS V13.01,2013-11-30 20:58:00,
2013-11-30 15:03:00,45.5,30.7,29.18,NNW,338,0.0,0.0,56,0.00,,---,0.00,VWS V13.01,2013-11-30 21:03:00,
2013-11-30 15:08:00,45.5,30.7,29.18,NW,315,0.0,0.0,56,0.00,,---,0.00,VWS V13.01,2013-11-30 21:08:00,
2013-11-30 15:13:00,45.5,30.3,29.18,NNW,338,0.0,0.0,55,0.00,,---,0.00,VWS V13.01,2013-11-30 21:13:00,
2013-11-30 15:18:00,45.1,30.4,29.19,NNW,338,0.0,0.0,56,0.00,,---,0.00,VWS V13.01,2013-11-30 21:18:00,
2013-11-30 15:23:00,44.9,30.2,29.19,NNW,338,0.0,0.0,56,0.00,,---,0.00,VWS V13.01,2013-11-30 21:23:00,
2013-11-30 15:28:00,44.7,30.0,29.19,NNW,338,0.0,0.0,56,0.00,,---,0.00,VWS V13.01,2013-11-30 21:28:00,
2013-11-30 15:33:00,44.7,30.0,29.19,NNW,338,0.0,0.0,56,0.00,,---,0.00,VWS V13.01,2013-11-30 21:33:00,
2013-11-30 15:38:00,44.4,30.1,29.19,NNW,338,0.0,0.0,57,0.00,,---,0.00,VWS V13.01,2013-11-30 21:38:00,
2013-11-30 15:43:00,44.4,30.1,29.19,NNW,338,0.0,0.0,57,0.00,,---,0.00,VWS V13.01,2013-11-30 21:43:00,
2013-11-30 15:48:00,44.2,30.0,29.19,NNW,338,0.0,0.0,57,0.00,,---,0.00,VWS V13.01,2013-11-30 21:48:00,
2013-11-30 15:53:00,43.8,29.6,29.19,NNW,338,0.0,0.0,57,0.00,,---,0.00,VWS V13.01,2013-11-30 21:53:00,
2013-11-30 15:58:00,43.5,29.7,29.19,NNW,338,0.0,0.0,58,0.00,,---,0.00,VWS V13.01,2013-11-30 21:58:00,
2013-11-30 16:03:00,43.5,29.7,29.20,NNW,338,0.0,0.0,58,0.00,,---,0.00,VWS V13.01,2013-11-30 22:03:00,
2013-11-30 16:08:00,43.1,29.3,29.20,NNW,338,0.0,0.0,58,0.00,,---,0.00,VWS V13.01,2013-11-30 22:08:00,
2013-11-30 16:13:00,42.9,29.2,29.20,NNW,338,0.0,0.0,58,0.00,,---,0.00,VWS V13.01,2013-11-30 22:13:00,
2013-11-30 16:18:00,42.6,28.9,29.20,NNW,338,0.0,0.0,58,0.00,,---,0.00,VWS V13.01,2013-11-30 22:18:00,
2013-11-30 16:23:00,42.0,28.7,29.20,NNW,338,0.0,0.0,59,0.00,,---,0.00,VWS V13.01,2013-11-30 22:23:00,
2013-11-30 16:28:00,41.7,28.4,29.20,NNW,338,0.0,0.0,59,0.00,,---,0.00,VWS V13.01,2013-11-30 22:28:00,
2013-11-30 16:33:00,41.5,28.3,29.21,NNW,338,0.0,0.0,59,0.00,,---,0.00,VWS V13.01,2013-11-30 22:33:00,
2013-11-30 16:38:00,41.1,28.3,29.21,NNW,338,0.0,0.0,60,0.00,,---,0.00,VWS V13.01,2013-11-30 22:38:00,
2013-11-30 16:43:00,40.8,28.0,29.21,NNW,338,0.0,0.0,60,0.00,,---,0.00,VWS V13.01,2013-11-30 22:43:00,
2013-11-30 16:48:00,40.4,28.0,29.21,NNW,338,0.0,0.0,61,0.00,,---,0.00,VWS V13.01,2013-11-30 22:48:00,
2013-11-30 16:53:00,39.9,27.6,29.21,NNW,338,0.0,0.0,61,0.00,,---,0.00,VWS V13.01,2013-11-30 22:53:00,
2013-11-30 16:58:00,39.7,27.4,29.21,NNW,338,0.0,0.0,61,0.00,,---,0.00,VWS V13.01,2013-11-30 22:58:00,
2013-11-30 17:03:00,39.3,27.0,29.21,NNW,338,0.0,0.0,61,0.00,,---,0.00,VWS V13.01,2013-11-30 23:03:00,
2013-11-30 17:08:00,39.0,26.7,29.22,NNW,338,0.0,0.0,61,0.00,,---,0.00,VWS V13.01,2013-11-30 23:08:00,
2013-11-30 17:13:00,38.8,26.9,29.22,NNW,338,0.0,0.0,62,0.00,,---,0.00,VWS V13.01,2013-11-30 23:13:00,
2013-11-30 17:18:00,38.4,26.5,29.22,NNW,338,0.0,0.0,62,0.00,,---,0.00,VWS V13.01,2013-11-30 23:18:00,
2013-11-30 17:23:00,38.3,26.4,29.22,NNW,338,0.0,0.0,62,0.00,,---,0.00,VWS V13.01,2013-11-30 23:23:00,
2013-11-30 17:28:00,37.9,26.5,29.22,NNW,338,0.0,0.0,63,0.00,,---,0.00,VWS V13.01,2013-11-30 23:28:00,
2013-11-30 17:33:00,37.7,26.3,29.22,NNW,338,0.0,0.0,63,0.00,,---,0.00,VWS V13.01,2013-11-30 23:33:00,
2013-11-30 17:38:00,37.5,26.5,29.23,NNW,338,0.0,0.0,64,0.00,,---,0.00,VWS V13.01,2013-11-30 23:38:00,
2013-11-30 17:43:00,37.2,26.2,29.23,NNW,338,0.0,0.0,64,0.00,,---,0.00,VWS V13.01,2013-11-30 23:43:00,
2013-11-30 17:48:00,37.0,26.3,29.23,NNW,338,0.0,0.0,65,0.00,,---,0.00,VWS V13.01,2013-11-30 23:48:00,
2013-11-30 17:53:00,36.8,26.1,29.23,NNW,338,0.0,0.0,65,0.00,,---,0.00,VWS V13.01,2013-11-30 23:53:00,
2013-11-30 17:58:00,36.6,26.0,29.23,NNW,338,0.0,0.0,65,0.00,,---,0.00,VWS V13.01,2013-11-30 23:58:00,
2013-11-30 18:03:00,36.3,25.7,29.23,NNW,338,0.0,0.0,65,0.00,,---,0.00,VWS V13.01,2013-12-01 00:03:00,
2013-11-30 18:08:00,36.3,26.0,29.23,NNW,338,0.0,0.0,66,0.00,,---,0.00,VWS V13.01,2013-12-01 00:08:00,
2013-11-30 18:13:00,35.9,25.7,29.23,NNW,338,0.0,0.0,66,0.00,,---,0.00,VWS V13.01,2013-12-01 00:13:00,
2013-11-30 18:18:00,35.7,25.5,29.23,NNW,338,0.0,0.0,66,0.00,,---,0.00,VWS V13.01,2013-12-01 00:18:00,
2013-11-30 18:23:00,35.4,25.5,29.23,NNW,338,0.0,0.0,67,0.00,,---,0.00,VWS V13.01,2013-12-01 00:23:00,
2013-11-30 18:28:00,35.2,25.4,29.23,NNW,338,0.0,0.0,67,0.00,,---,0.00,VWS V13.01,2013-12-01 00:28:00,
2013-11-30 18:33:00,35.2,25.4,29.23,NNW,338,0.0,0.0,67,0.00,,---,0.00,VWS V13.01,2013-12-01 00:33:00,
2013-11-30 18:38:00,34.8,25.3,29.23,NNW,338,0.0,0.0,68,0.00,,---,0.00,VWS V13.01,2013-12-01 00:38:00,
2013-11-30 18:43:00,34.8,25.3,29.23,NNW,338,0.0,0.0,68,0.00,,---,0.00,VWS V13.01,2013-12-01 00:43:00,
2013-11-30 18:48:00,34.7,25.2,29.23,NNW,338,0.0,0.0,68,0.00,,---,0.00,VWS V13.01,2013-12-01 00:48:00,
2013-11-30 18:53:00,34.5,25.0,29.24,NNW,338,0.0,0.0,68,0.00,,---,0.00,VWS V13.01,2013-12-01 00:53:00,
2013-11-30 18:58:00,34.3,24.9,29.23,NNW,338,0.0,0.0,68,0.00,,---,0.00,VWS V13.01,2013-12-01 00:58:00,
2013-11-30 19:03:00,34.3,25.2,29.23,NNW,338,0.0,0.0,69,0.00,,---,0.00,VWS V13.01,2013-12-01 01:03:00,
2013-11-30 19:08:00,34.3,25.2,29.24,NNW,338,0.0,0.0,69,0.00,,---,0.00,VWS V13.01,2013-12-01 01:08:00,
2013-11-30 19:13:00,34.3,25.2,29.24,NNW,338,0.0,0.0,69,0.00,,---,0.00,VWS V13.01,2013-12-01 01:13:00,
2013-11-30 19:18:00,34.3,25.2,29.24,NNW,338,0.0,0.0,69,0.00,,---,0.00,VWS V13.01,2013-12-01 01:18:00,
2013-11-30 19:23:00,34.3,25.5,29.24,NNW,338,0.0,0.0,70,0.00,,---,0.00,VWS V13.01,2013-12-01 01:23:00,
2013-11-30 19:28:00,34.3,25.5,29.24,NNW,338,0.0,0.0,70,0.00,,---,0.00,VWS V13.01,2013-12-01 01:28:00,
2013-11-30 19:33:00,34.3,25.5,29.24,NNW,338,0.0,0.0,70,0.00,,---,0.00,VWS V13.01,2013-12-01 01:33:00,
2013-11-30 19:38:00,34.3,25.5,29.24,NNW,338,0.0,0.0,70,0.00,,---,0.00,VWS V13.01,2013-12-01 01:38:00,
2013-11-30 19:43:00,34.3,25.5,29.24,NNW,338,0.0,0.0,70,0.00,,---,0.00,VWS V13.01,2013-12-01 01:43:00,
2013-11-30 19:45:00,34.3,25.5,29.24,NNW,338,0.0,0.0,70,0.00,,---,0.00,VWS V13.01,2013-12-01 01:45:00,
2013-11-30 19:50:00,34.3,25.5,29.24,NNW,338,0.0,0.0,70,0.00,,---,0.00,VWS V13.01,2013-12-01 01:50:00,
2013-11-30 19:55:00,33.9,25.2,29.25,NNW,338,0.0,0.0,70,0.00,,---,0.00,VWS V13.01,2013-12-01 01:55:00,
2013-11-30 20:00:00,33.8,25.1,29.25,NNW,338,0.0,0.0,70,0.00,,---,0.00,VWS V13.01,2013-12-01 02:00:00,
2013-11-30 20:05:00,33.6,25.2,29.25,NNW,338,0.0,0.0,71,0.00,,---,0.00,VWS V13.01,2013-12-01 02:05:00,
2013-11-30 20:10:00,33.4,25.0,29.25,NNW,338,0.0,0.0,71,0.00,,---,0.00,VWS V13.01,2013-12-01 02:10:00,
2013-11-30 20:15:00,33.4,25.4,29.25,NNW,338,0.0,0.0,72,0.00,,---,0.00,VWS V13.01,2013-12-01 02:15:00,
2013-11-30 20:20:00,33.4,25.4,29.25,NNW,338,0.0,0.0,72,0.00,,---,0.00,VWS V13.01,2013-12-01 02:20:00,
2013-11-30 20:25:00,33.4,25.4,29.25,NNW,338,0.0,0.0,72,0.00,,---,0.00,VWS V13.01,2013-12-01 02:25:00,
2013-11-30 20:30:00,33.2,25.2,29.24,NNW,338,0.0,0.0,72,0.00,,---,0.00,VWS V13.01,2013-12-01 02:30:00,
2013-11-30 20:35:00,33.0,25.0,29.25,NNW,338,4.0,4.0,72,0.00,,---,0.00,VWS V13.01,2013-12-01 02:35:00,
2013-11-30 20:41:00,33.0,25.0,29.25,NNW,338,0.0,0.0,72,0.00,,---,0.00,VWS V13.01,2013-12-01 02:41:00,
2013-11-30 20:46:00,33.0,25.0,29.24,NNW,338,0.0,0.0,72,0.00,,---,0.00,VWS V13.01,2013-12-01 02:46:00,
2013-11-30 20:51:00,32.9,24.9,29.25,NNW,338,0.0,0.0,72,0.00,,---,0.00,VWS V13.01,2013-12-01 02:51:00,
2013-11-30 20:56:00,32.9,24.9,29.25,NNW,338,0.0,0.0,72,0.00,,---,0.00,VWS V13.01,2013-12-01 02:56:00,
2013-11-30 21:01:00,32.9,24.9,29.25,NNW,338,0.0,0.0,72,0.00,,---,0.00,VWS V13.01,2013-12-01 03:01:00,
2013-11-30 21:06:00,32.7,24.7,29.25,NNW,338,0.0,0.0,72,0.00,,---,0.00,VWS V13.01,2013-12-01 03:06:00,
2013-11-30 21:11:00,32.7,24.7,29.25,NNW,338,0.0,0.0,72,0.00,,---,0.00,VWS V13.01,2013-12-01 03:11:00,
2013-11-30 21:16:00,32.5,24.8,29.25,North,0,0.0,0.0,73,0.00,,---,0.00,VWS V13.01,2013-12-01 03:16:00,
2013-11-30 21:21:00,32.5,24.8,29.25,North,0,0.0,0.0,73,0.00,,---,0.00,VWS V13.01,2013-12-01 03:21:00,
2013-11-30 21:26:00,32.3,24.6,29.24,North,0,0.0,0.0,73,0.00,,---,0.00,VWS V13.01,2013-12-01 03:26:00,
2013-11-30 21:31:00,32.1,24.4,29.25,North,0,0.0,0.0,73,0.00,,---,0.00,VWS V13.01,2013-12-01 03:31:00,
2013-11-30 21:36:00,32.1,24.4,29.25,North,0,0.0,0.0,73,0.00,,---,0.00,VWS V13.01,2013-12-01 03:36:00,
2013-11-30 21:41:00,32.0,24.3,29.25,NNW,338,0.0,0.0,73,0.00,,---,0.00,VWS V13.01,2013-12-01 03:41:00,
2013-11-30 21:46:00,31.8,24.5,29.25,NNW,338,3.4,3.4,74,0.00,,---,0.00,VWS V13.01,2013-12-01 03:46:00,
2013-11-30 21:51:00,31.8,24.5,29.25,NNW,338,0.0,0.0,74,0.00,,---,0.00,VWS V13.01,2013-12-01 03:51:00,
2013-11-30 21:56:00,31.8,24.5,29.25,NNW,338,0.0,0.0,74,0.00,,---,0.00,VWS V13.01,2013-12-01 03:56:00,
2013-11-30 22:01:00,31.6,24.3,29.25,NNW,338,0.0,0.0,74,0.00,,---,0.00,VWS V13.01,2013-12-01 04:01:00,
2013-11-30 22:06:00,31.6,24.3,29.26,North,0,0.0,0.0,74,0.00,,---,0.00,VWS V13.01,2013-12-01 04:06:00,
2013-11-30 22:11:00,31.6,24.3,29.25,North,0,0.0,0.0,74,0.00,,---,0.00,VWS V13.01,2013-12-01 04:11:00,
2013-11-30 22:16:00,31.6,24.3,29.26,NNE,22,0.0,0.0,74,0.00,,---,0.00,VWS V13.01,2013-12-01 04:16:00,
2013-11-30 22:21:00,31.6,24.3,29.26,NNE,22,0.0,0.0,74,0.00,,---,0.00,VWS V13.01,2013-12-01 04:21:00,
2013-11-30 22:26:00,31.6,24.3,29.26,NNE,22,0.0,0.0,74,0.00,,---,0.00,VWS V13.01,2013-12-01 04:26:00,
2013-11-30 22:31:00,31.6,24.3,29.26,NNE,22,0.0,0.0,74,0.00,,---,0.00,VWS V13.01,2013-12-01 04:31:00,
2013-11-30 22:36:00,31.4,24.1,29.26,NNE,22,0.0,0.0,74,0.00,,---,0.00,VWS V13.01,2013-12-01 04:36:00,
2013-11-30 22:41:00,31.2,24.2,29.26,NNW,338,0.0,0.0,75,0.00,,---,0.00,VWS V13.01,2013-12-01 04:41:00,
2013-11-30 22:46:00,31.2,24.2,29.26,NW,315,0.0,0.0,75,0.00,,---,0.00,VWS V13.01,2013-12-01 04:46:00,
2013-11-30 22:51:00,31.2,24.2,29.26,North,0,0.0,0.0,75,0.00,,---,0.00,VWS V13.01,2013-12-01 04:51:00,
2013-11-30 22:56:00,31.1,24.1,29.26,NNW,338,0.0,0.0,75,0.00,,---,0.00,VWS V13.01,2013-12-01 04:56:00,
2013-11-30 23:01:00,31.1,24.1,29.27,NNW,338,0.0,0.0,75,0.00,,---,0.00,VWS V13.01,2013-12-01 05:01:00,
2013-11-30 23:02:00,31.1,24.1,29.27,NNW,338,0.0,0.0,75,0.00,,---,0.00,VWS V13.01,2013-12-01 05:02:00,
2013-11-30 23:03:00,31.1,24.1,29.27,NNW,338,0.0,0.0,75,0.00,,---,0.00,VWS V13.01,2013-12-01 05:03:00,
2013-11-30 23:05:00,31.1,24.1,29.27,NNW,338,0.0,0.0,75,0.00,,---,0.00,VWS V13.01,2013-12-01 05:05:00,
2013-11-30 23:10:00,31.1,24.1,29.27,NW,315,13.8,13.8,75,0.00,,---,0.00,VWS V13.01,2013-12-01 05:10:00,
2013-11-30 23:11:00,31.1,24.1,29.27,NW,315,13.8,13.8,75,0.00,,---,0.00,VWS V13.01,2013-12-01 05:11:00,
2013-11-30 23:16:00,30.9,23.9,29.27,NNW,338,0.0,0.0,75,0.00,,---,0.00,VWS V13.01,2013-12-01 05:16:00,
2013-11-30 23:21:00,30.9,23.9,29.27,NW,315,0.0,0.0,75,0.00,,---,0.00,VWS V13.01,2013-12-01 05:21:00,
2013-11-30 23:27:00,30.9,23.9,29.26,NW,315,0.0,0.0,75,0.00,,---,0.00,VWS V13.01,2013-12-01 05:27:00,
2013-11-30 23:32:00,30.9,23.9,29.26,NW,315,0.0,0.0,75,0.00,,---,0.00,VWS V13.01,2013-12-01 05:32:00,
2013-11-30 23:37:00,30.9,23.9,29.27,NNW,338,0.0,0.0,75,0.00,,---,0.00,VWS V13.01,2013-12-01 05:37:00,
2013-11-30 23:42:00,30.9,23.9,29.26,NNW,338,0.0,0.0,75,0.00,,---,0.00,VWS V13.01,2013-12-01 05:42:00,
2013-11-30 23:47:00,30.9,23.9,29.27,NNE,22,0.0,0.0,75,0.00,,---,0.00,VWS V13.01,2013-12-01 05:47:00,
2013-11-30 23:52:00,30.9,23.9,29.28,NW,315,0.0,0.0,75,0.00,,---,0.00,VWS V13.01,2013-12-01 05:52:00,
2013-11-30 23:57:00,30.9,23.9,29.28,NNW,338,7.6,7.6,75,0.00,,---,0.00,VWS V13.01,2013-12-01 05:57:00,